Marc Roussel

Olheiro-Chefe - OGC Nice
20 Nov 2027
Sábado
Processo

Personalidade

Adaptabilidade (5) Ambição (19) Controvérsia (12) Lealdade (4) Pressão (16) Profissionalismo (7) Espírito Esportivo (3) Temperamento (4)

Perfil

Estilo de Treinamento Democrático
Licença Continental C
Determinação 5
Gestão de Pessoas 14
Motivação 5
Disciplina 8
Satisfação no Trabalho
85%
Fadiga
0%
Função Olheiro-Chefe
Salário 80.0K p/s
Contrato 14.03.2028

Desempenho

Comportamento Bom
Eficácia do Treinamento
40%
Desenvolvimento do Jogador
55%
Prevenção de Lesões
60%
Implementação Tática
75%

Eventos Recentes

Participou de uma reunião de recrutamento agora
Recomendou um alvo de transferência agora
Recomendou um alvo de transferência agora
Recomendou um alvo de transferência agora
Participou de uma reunião de recrutamento agora
Recomendou um alvo de transferência agora
Avaliou um jogador agora
Avaliou um jogador agora

Monitorando agora

211
Jogador Clube Status Habilidade Confiança Observado Última observação Último voto
Christos Mouzakitis Hull City Ativo 134 / 138 40% 2 18.11.2027 -
Chemsdine Talbi Sunderland Ativo 151 / 143 40% 4 18.11.2027 -
Sam Curtis Swindon Town Ativo 102 / 106 40% 1 18.11.2027 -
Guy Noël Zohouri Le Havre AC Ativo 120 / 124 40% 1 18.11.2027 -
Liam Delap Nottingham Forest Ativo 150 / 153 40% 1 18.11.2027 -
Raúl Moro Osasuna Ativo 141 / 144 40% 1 18.11.2027 -
Mohamed-Ali Cho Hull City Ativo 139 / 146 40% 4 17.11.2027 -
Eli Junior Kroupi Bournemouth Ativo 140 / 150 40% 3 17.11.2027 -
Víctor Muñoz Queens Park Rangers Ativo 149 / 147 40% 2 17.11.2027 -
Loum Tchaouna Coventry City Ativo 146 / 141 40% 13 16.11.2027 -
Pablo Pagis Sochaux Ativo 138 / 124 40% 4 16.11.2027 -
Trey Nyoni Doncaster Rovers Ativo 142 / 140 40% 1 15.11.2027 -
Bade Aluko Accrington Stanley Ativo 122 / 133 40% 1 15.11.2027 -
Francis Gomez Accrington Stanley Ativo 112 / 116 40% 1 15.11.2027 -
Warren Zaïre-Emery Paris Saint-Germain Ativo 152 / 163 40% 9 13.11.2027 -
Conor Bradley Blackburn Rovers Ativo 162 / 167 40% 3 13.11.2027 -
Ngal'Ayel Mukau Sochaux Ativo 136 / 155 40% 2 13.11.2027 -
Nico Paz Nacional Ativo 155 / 168 40% 3 11.11.2027 -
Robert FC Copenhagen Ativo 125 / 124 40% 4 11.11.2027 -
Rayane Bounida Ajax Ativo 132 / 134 40% 1 11.11.2027 -
Ayyoub Bouaddi Blackpool Ativo 144 / 150 40% 4 10.11.2027 -
Kenan Busuladžić Malmo FF Ativo 105 / 125 40% 2 10.11.2027 -
Marius Broholm LOSC Lille Ativo 140 / 129 40% 1 10.11.2027 -
Adam Karabec Sparta Prague Ativo 135 / 129 40% 1 10.11.2027 -
Cheveyo Tsawa Standard Liege Ativo 117 / 125 40% 1 10.11.2027 -
Jorrel Hato Chelsea Ativo 154 / 151 40% 2 09.11.2027 -
Luis Otávio Toronto FC Ativo 100 / 130 40% 1 09.11.2027 -
Roger François Udinese Ativo 150 / 150 40% 13 06.11.2027 -
Arthur Atta Fiorentina Ativo 148 / 151 40% 11 06.11.2027 -
Julien Duranville Olympique Lyonnais Ativo 130 / 142 40% 1 06.11.2027 -
Antoine Bernard Chamois Niortais Ativo 149 / 153 40% 14 05.11.2027 Observar
Senny Mayulu Paris Saint-Germain Ativo 140 / 162 40% 2 05.11.2027 -
Isaac Price West Bromwich Albion Ativo 133 / 131 40% 2 05.11.2027 -
Fredrik Sjøvold Bodo/Glimt Ativo 140 / 120 40% 4 04.11.2027 -
Dayann Methalie Everton Ativo 133 / 134 40% 5 03.11.2027 -
Julio Enciso Ipswich Town Ativo 151 / 150 40% 2 03.11.2027 -
Kamory Doumbia FC Nantes Ativo 145 / 154 40% 3 02.11.2027 -
Yankuba Minteh Brighton Ativo 150 / 158 40% 1 02.11.2027 -
Tino Livramento Newcastle United Ativo 166 / 159 40% 3 01.11.2027 -
Kévin Danois AJ Auxerre Ativo 134 / 144 40% 4 31.10.2027 -
Mathys Tel Stade Rennais Ativo 160 / 155 40% 2 31.10.2027 -
Franjo Ivanović Benfica Ativo 133 / 139 40% 2 30.10.2027 -
Hákon Arnar Haraldsson LOSC Lille Ativo 150 / 149 40% 5 29.10.2027 -
Marlon Gomes Bahia Ativo 142 / 147 40% 3 29.10.2027 -
Dário Essugo Chelsea Ativo 140 / 143 40% 1 28.10.2027 -
Alex Scott Bournemouth Ativo 155 / 164 40% 3 27.10.2027 -
Paxten Aaronson Colorado Rapids Ativo 136 / 149 40% 5 27.10.2027 -
Carlos Alcaraz Everton Ativo 151 / 155 40% 2 25.10.2027 -
Gonzalo Fulham Ativo 150 / 153 40% 1 25.10.2027 -
Shea Charles Southampton Ativo 145 / 144 40% 1 24.10.2027 -
Allan Oxford United Ativo 138 / 146 40% 1 22.10.2027 -
Christantus Uche Getafe Ativo 147 / 138 40% 1 22.10.2027 -
Yeremay Deportivo La Coruña Ativo 146 / 158 40% 1 20.10.2027 -
Josh King Derby County Ativo 149 / 149 40% 1 19.10.2027 -
Josh Nichols Tranmere Rovers Ativo 116 / 127 40% 1 19.10.2027 -
William Osula Wrexham Ativo 140 / 142 40% 1 19.10.2027 -
Stanis Idumbo FC Metz Ativo 133 / 138 40% 1 18.10.2027 -
Wilson Odobert Norwich City Ativo 148 / 142 40% 2 14.10.2027 -
Omar El Hilali Espanyol Ativo 148 / 144 40% 2 14.10.2027 -
Jeanuël Belocian Bayer Leverkusen Ativo 138 / 139 40% 2 13.10.2027 -
El Hadji Malick Diouf Brentford Ativo 140 / 152 40% 1 12.10.2027 -
Thierno Barry Watford Ativo 143 / 142 40% 2 10.10.2027 -
Savinho Tottenham Ativo 156 / 154 40% 1 10.10.2027 -
Ilias Akhomach Villarreal Ativo 147 / 146 40% 1 10.10.2027 -
Jan Virgili Club Brugge Ativo 136 / 132 40% 2 09.10.2027 -
Carlos Forbs Club Brugge Ativo 138 / 132 40% 1 09.10.2027 -
Nacer Mignolet KV Oostende Ativo 137 / 146 40% 8 06.10.2027 -
Noah Nartey Olympique Lyonnais Ativo 137 / 129 40% 2 06.10.2027 -
Giovanni Leoni Mansfield Town Ativo 132 / 141 40% 1 06.10.2027 -
Halam Loboa Independiente Medellin Ativo 130 / 134 40% 1 06.10.2027 -
Marc Bernal Valladolid Ativo 146 / 159 40% 1 06.10.2027 -
Ilay Camara Anderlecht Ativo 131 / 137 40% 13 04.10.2027 -
Zinho Castagne KV Oostende Ativo 139 / 146 40% 5 04.10.2027 -
Félix Lemaréchal Club Brugge Ativo 144 / 139 40% 9 03.10.2027 -
Tyler Morton Olympique Lyonnais Ativo 143 / 150 40% 6 03.10.2027 -
Agustín Giay Palmeiras Ativo 122 / 152 40% 2 03.10.2027 -
Xavi Simons Tottenham Ativo 167 / 169 40% 1 29.09.2027 -
Roméo Lavia Chelsea Ativo 151 / 148 40% 1 24.09.2027 -
Rodrigo Gomes Wolverhampton Ativo 142 / 152 40% 1 23.09.2027 -
Kota Tawaratsumida Gamba Osaka Ativo 133 / 130 40% 1 22.09.2027 -
Mikel Jauregizar Athletic Bilbao Ativo 165 / 168 40% 1 21.09.2027 -
Habib Diarra Sunderland Ativo 150 / 153 40% 6 19.09.2027 -
Matteo Dams Club Brugge Ativo 129 / 128 40% 2 17.09.2027 -
Joaquín Panichelli FC Nantes Ativo 137 / 145 40% 1 16.09.2027 -
Bazoumana Touré Newcastle United Ativo 140 / 152 40% 1 14.09.2027 -
Yoan Bonny Palermo Ativo 144 / 149 40% 1 12.09.2027 -
Malo Gusto Chelsea Ativo 158 / 158 40% 2 06.09.2027 -
Désiré Doué Paris Saint-Germain Rejeitado 161 / 177 40% 2 06.09.2027 Mais informações
Khvicha Kvaratskhelia Inter Ativo 173 / 164 40% 9 16.08.2027 -
Fran García Betis Perdido 159 / 146 40% 1 16.08.2027 -
Lassine Sinayoko Paris FC Ativo 140 / 142 69% 1 19.07.2027 Aprovar
Emile Smith Rowe Fulham Ativo 150 / 147 40% 1 14.07.2027 -
Jon Morcillo Almería Ativo 133 / 127 40% 1 14.07.2027 -
Armand Laurienté Sassuolo Ativo 137 / 139 40% 1 14.07.2027 -
Clément Akpa AJ Auxerre Perdido 138 / 144 69% 1 02.06.2027 -
Nicolas Jackson Aston Villa Ativo 147 / 142 40% 1 31.05.2027 -
Kiernan Dewsbury-Hall Everton Ativo 155 / 144 40% 1 31.05.2027 -
Boubacar Kamara Aston Villa Perdido 163 / 161 40% 17 30.05.2027 -
Brooke Norton-Cuffy Hull City Ativo 137 / 134 40% 6 30.05.2027 -
Ethan Ampadu Leeds United Ativo 144 / 146 40% 1 30.05.2027 -
Nuno Mendes Paris Saint-Germain Ativo 176 / 166 40% 12 28.05.2027 -
Maxence Lacroix Chelsea Ativo 149 / 148 40% 6 28.05.2027 -
Pierre Kalulu Juventus Ativo 152 / 150 40% 14 27.05.2027 -
Guille Rosas Gijón Ativo 142 / 132 40% 1 27.05.2027 -
Manu Koné AS Roma Ativo 158 / 169 40% 16 25.05.2027 -
Levi Colwill Chelsea Ativo 165 / 157 40% 7 25.05.2027 -
Wesley Fofana Chelsea Ativo 167 / 168 40% 5 24.05.2027 -
Alberto Costa Porto Ativo 146 / 138 40% 2 24.05.2027 -
Tariq Lamptey Queens Park Rangers Ativo 138 / 124 40% 4 22.05.2027 -
James Garner Everton Ativo 149 / 148 40% 5 22.05.2027 -
Sven Botman Newcastle United Ativo 162 / 164 40% 3 21.05.2027 -
Florentino Luís Ipswich Town Ativo 143 / 146 40% 4 21.05.2027 -
Neco Williams Nottingham Forest Ativo 149 / 139 40% 1 21.05.2027 -
Ismaël Doukouré RC Strasbourg Ativo 130 / 141 40% 6 19.05.2027 -
Ramón Terrats Getafe Ativo 143 / 147 40% 3 18.05.2027 -
Adam Wharton Crystal Palace Ativo 158 / 156 40% 1 18.05.2027 -
Oumar Solet Udinese Ativo 144 / 154 40% 9 16.05.2027 -
Odilon Kossounou Atalanta Ativo 149 / 148 40% 2 16.05.2027 -
Tyrell Malacia Derby County Ativo 141 / 135 40% 7 13.05.2027 -
Samson Baidoo RC Lens Ativo 136 / 137 40% 1 13.05.2027 -
Jacob Greaves Ipswich Town Ativo 142 / 125 40% 4 12.05.2027 -
Tim Iroegbunam Hull City Ativo 142 / 144 40% 2 11.05.2027 -
André Wolverhampton Ativo 139 / 152 40% 1 07.05.2027 -
Jack Hinshelwood Brighton Ativo 146 / 144 40% 1 06.05.2027 -
Jan Paul van Hecke Tottenham Ativo 162 / 148 40% 7 05.05.2027 -
Nathan Collins Brentford Ativo 143 / 148 40% 2 05.05.2027 -
Amadou Onana Newcastle United Ativo 151 / 156 40% 3 03.05.2027 -
Juanlu Bournemouth Ativo 144 / 148 40% 1 02.05.2027 -
Óscar Mingueza Crystal Palace Ativo 148 / 150 40% 7 29.04.2027 -
Abner Vinicius Olympique Lyonnais Ativo 143 / 140 40% 8 28.04.2027 -
Yehor Yarmoliuk Brentford Ativo 142 / 146 40% 3 25.04.2027 -
Ryan Sessegnon Fulham Ativo 150 / 148 40% 3 25.04.2027 -
Jarrad Branthwaite Everton Ativo 159 / 162 40% 1 24.04.2027 -
Diego Coppola Paris FC Ativo 133 / 149 40% 7 21.04.2027 -
Tiago Santos LOSC Lille Ativo 149 / 151 40% 5 21.04.2027 -
Khéphren Thuram Juventus Perdido 164 / 164 40% 6 15.04.2027 -
Adrien Truffert Bournemouth Ativo 156 / 150 40% 6 13.04.2027 -
Pedro Porro Tottenham Ativo 143 / 151 40% 2 13.04.2027 -
Moisés Caicedo Chelsea Ativo 165 / 163 40% 3 10.04.2027 -
Willian Pacho Juventus Ativo 166 / 169 40% 4 09.04.2027 -
Álex Valle Como Ativo 141 / 149 40% 1 07.04.2027 -
Quinten Timber Crystal Palace Ativo 148 / 145 40% 4 06.04.2027 -
Bright Arrey-Mbi Braga Ativo 137 / 124 40% 1 01.04.2027 -
Wilfried Singo Galatasaray Ativo 148 / 129 40% 1 28.03.2027 -
Evan N'Dicka AS Roma Ativo 152 / 154 40% 2 26.03.2027 -
Micky van de Ven Tottenham Ativo 156 / 149 40% 2 24.03.2027 -
Riquelme Thompson-Jones Shrewsbury Town Ativo 97 / 119 40% 2 07.03.2027 -
Ollie Scarles Chelsea Ativo 127 / 143 40% 1 07.03.2027 -
Bastien Meupiyou Alverca Ativo 125 / 120 40% 1 07.03.2027 -
Louis Leroux FC Nantes Ativo 128 / 117 65% 2 05.03.2027 Aprovar
Amine Boukamir Charleroi Ativo 104 / 102 40% 3 03.03.2027 -
Thomas Alderweireld Dijon Ativo 126 / 119 40% 1 03.03.2027 -
Nico O'Reilly Manchester City Ativo 154 / 151 40% 1 03.03.2027 -
Vitinha Paris Saint-Germain Ativo 173 / 176 40% 8 23.02.2027 -
Lucas Da Cunha Como Ativo 149 / 140 40% 1 23.02.2027 -
Bradley Locko Stade Brestois Ativo 128 / 133 40% 2 20.02.2027 -
Christian Krasnodar Ativo 135 / 130 40% 3 15.02.2027 -
Yacine Adli Al-Shabab Ativo 138 / 128 40% 2 09.02.2027 -
Joaquin Seys Club Brugge Ativo 126 / 121 40% 1 06.02.2027 -
Enzo Koffi FC Nantes Ativo 106 / 102 40% 1 06.02.2027 -
Milan Roganović Racing Genk Ativo 103 / 126 40% 1 04.02.2027 -
Gady Beyuku Blackburn Rovers Ativo 111 / 110 40% 1 02.02.2027 -
Saman Taremi Padideh Ativo 106 / 116 40% 1 02.02.2027 -
Alpha Touré FC Metz Ativo 112 / 117 40% 1 02.02.2027 -
Karim Coulibaly RC Strasbourg Ativo 111 / 140 40% 1 01.02.2027 -
Ibrahim Coulibaly Clermont Foot Ativo 114 / 101 40% 1 01.02.2027 -
Frédéric Guilbert FC Nantes Ativo 128 / 129 65% 1 25.01.2027 Aprovar
Konstantin Tyukavin Arsenal Negociando 132 / 133 66% 1 18.01.2027 Aprovar
Aimé Omgba KAA Gent Ativo 118 / 125 40% 5 12.01.2027 -
Bill Antonio KV Mechelen Ativo 122 / 115 40% 1 12.01.2027 -
Tristan Crama Millwall Ativo 131 / 125 40% 1 12.01.2027 -
Lautaro Martínez Inter Ativo 169 / 173 40% 1 11.01.2027 -
Mohammed Kudus Tottenham Ativo 162 / 148 40% 1 11.01.2027 -
Enzo Le Fée Sunderland Ativo 147 / 130 40% 7 22.12.2026 -
Adriano Bertaccini Anderlecht Ativo 120 / 118 40% 7 19.12.2026 -
Dylan Ourega Westerlo Ativo 115 / 107 40% 9 18.12.2026 -
Thorgan Castagne KV Oostende Ativo 117 / 130 40% 3 18.12.2026 -
Abdelkahar Kadri KAA Gent Ativo 126 / 128 40% 5 16.12.2026 -
Osame Sahraoui LOSC Lille Perdido 141 / 135 40% 6 15.12.2026 -
Thibaud Verlinden OH Leuven Ativo 123 / 115 40% 1 15.12.2026 -
Enzo Loiodice KAA Gent Ativo 138 / 139 40% 3 14.12.2026 -
Mamadou Diakhon Club Brugge Ativo 124 / 123 40% 5 13.12.2026 -
Pavel Šulc Olympique Lyonnais Ativo 149 / 144 40% 1 13.12.2026 -
Sofyan Chader Basel Ativo 120 / 118 40% 4 09.12.2026 -
Carlos Álvarez Club America Ativo 134 / 128 40% 1 07.12.2026 -
Marley Aké Zulte Waregem Ativo 115 / 118 40% 3 03.12.2026 -
Chris Lokesa Waasland-Beveren Ativo 124 / 124 40% 2 30.11.2026 -
Ilias Sebaoui Sint-Truiden Ativo 132 / 121 40% 4 30.11.2026 -
Mario Stroeykens Anderlecht Ativo 132 / 125 40% 5 10.11.2026 -
Ilyes Najim Waasland-Beveren Ativo 110 / 117 40% 4 07.11.2026 -
Iliman N'Diaye Everton Ativo 155 / 149 40% 2 06.11.2026 -
Matisse Samoise KAA Gent Ativo 113 / 124 40% 2 22.10.2026 -
Antoine Colassin Charleroi Ativo 113 / 116 40% 1 21.10.2026 -
Henok Teklab OH Leuven Ativo 125 / 117 40% 1 20.10.2026 -
Lamine Cissé Peterborough United Ativo 127 / 129 40% 1 18.10.2026 -
Daan Heymans Racing Genk Ativo 121 / 123 40% 3 11.10.2026 -
Tristan Degreef Anderlecht Ativo 117 / 122 40% 1 04.10.2026 -
Hakim Guenouche Genoa Ativo 112 / 126 40% 1 02.10.2026 -
Sylvester Jasper Standard Liege Ativo 113 / 112 40% 1 02.10.2026 -
Ryan Merlen Sint-Truiden Ativo 104 / 120 40% 2 01.10.2026 -
Achraf Hakimi Paris Saint-Germain Ativo 171 / 165 40% 1 25.09.2026 -
Wilson Isidor Sunderland Ativo 127 / 139 40% 1 22.09.2026 -
Thérence Koudou KV Mechelen Ativo 102 / 117 40% 1 07.09.2026 -
Odsonne Édouard Paris Saint-Germain Ativo 128 / 133 40% 1 25.08.2026 -
Dominic Calvert-Lewin FC Nantes Ativo 142 / 146 40% 1 25.08.2026 -
Ousmane Dembélé Paris Saint-Germain Ativo 177 / 195 40% 1 18.08.2026 -
Rico Lewis Manchester City Ativo 142 / 164 40% 1 09.08.2026 -
Lewis Hall Newcastle United Ativo 139 / 153 40% 1 09.08.2026 -
Jarrod Bowen West Ham United Ativo 158 / 147 40% 1 01.08.2026 -
Antoine Semenyo Manchester City Ativo 156 / 145 40% 1 01.08.2026 -
Kai Havertz Arsenal Ativo 151 / 152 40% 1 01.08.2026 -